Rutherford County, North Carolina, United States
Lat: 35.39N, Lon: 81.98W
Wx Zone: NCZ508
Local Info
Past Weather Observations for Today

NOTE: This archive is for the closest National Weather Service station to Rutherford County. Information may differ from the station used for current weather conditions.

Click here for Long-term Archive

Time Weather Temperature Dewpoint Humidity Pressure Winds Precip Visibility
06:35
Partly Cloudy
Fog And Mist
59°F / 15°C 59°F / 15°C 100% 29.98 in
(1015 mb)
Calm - 4SM
06:15
Overcast
Fog And Mist
59°F / 15°C 59°F / 15°C 100% 29.98 in
(1015 mb)
NW 3.5 mph
(NW 6 kph)
- 3/4SM
05:55
Overcast
Fog And Mist
59°F / 15°C 59°F / 15°C 100% 29.98 in
(1015 mb)
Calm - 1SM
05:35
Overcast
Fog
59°F / 15°C 59°F / 15°C 100% 29.98 in
(1015 mb)
Calm - 1/4SM
05:15
Overcast
Fog And Mist
61°F / 16°C 61°F / 16°C 100% 29.98 in
(1015 mb)
Calm - 1SM
04:55
Clear
61°F / 16°C 61°F / 16°C 100% 29.98 in
(1015 mb)
Calm - 7SM
04:35
Clear
61°F / 16°C 61°F / 16°C 100% 29.98 in
(1015 mb)
NW 5.8 mph
(NW 9 kph)
- 10SM
04:15
Partly Cloudy
61°F / 16°C 61°F / 16°C 100% 29.98 in
(1015 mb)
NW 4.6 mph
(NW 7 kph)
- 10SM
03:55
Overcast
63°F / 17°C 63°F / 17°C 100% 29.98 in
(1015 mb)
NW 5.8 mph
(NW 9 kph)
- 10SM
03:35
Overcast
63°F / 17°C 63°F / 17°C 100% 29.98 in
(1015 mb)
NW 4.6 mph
(NW 7 kph)
- 7SM
03:15
Overcast
Fog And Mist
63°F / 17°C 63°F / 17°C 100% 29.98 in
(1015 mb)
NW 3.5 mph
(NW 6 kph)
- 3SM
02:55
Overcast
Fog
63°F / 17°C 63°F / 17°C 100% 29.98 in
(1015 mb)
Calm - 1/2SM
02:35
Overcast
Fog And Mist
63°F / 17°C 63°F / 17°C 100% 29.98 in
(1015 mb)
Calm - 1 1/4SM
02:15
Overcast
Fog And Mist
63°F / 17°C 63°F / 17°C 100% 29.98 in
(1015 mb)
Calm - 5SM
01:55
Overcast
Fog And Mist
63°F / 17°C 63°F / 17°C 100% 29.98 in
(1015 mb)
Calm - 4SM
01:35
Overcast
Fog And Mist
63°F / 17°C 63°F / 17°C 100% 29.98 in
(1015 mb)
Calm - 1 1/2SM
01:15
Overcast
Fog And Mist
63°F / 17°C 63°F / 17°C 100% 30.01 in
(1016 mb)
Calm - 4SM
00:55
Overcast
Fog And Mist
63°F / 17°C 63°F / 17°C 100% 30.01 in
(1016 mb)
Calm - 3SM
00:35
Overcast
Fog And Mist
63°F / 17°C 63°F / 17°C 100% 30.01 in
(1016 mb)
Calm - 2 1/2SM
00:15
Overcast
Fog And Mist
63°F / 17°C 63°F / 17°C 100% 30.01 in
(1016 mb)
WNW 4.6 mph
(WNW 7 kph)
- 4SM
Time Weather Temperature Dewpoint Humidity Pressure Winds Precip Visibility


Weather for websites

WeatherForYou.com, LLC is not responsible for any damages or problems caused by this service. Current weather conditions are obtained from the closest station including government and personal stations which may have varying degrees of accuracy. Weather forecasts are derived from the NOAA NDFD. Like all things, this site belongs to Jesus Christ... He just trusts me to maintain it. If you have any questions or comments email webmaster@weatherforyou.com

Copyright © 2014, WeatherForYou.com LLC. All rights reserved.